Wind_Speed
15 15 16 15 15 14 16 16 17 17 17 17 17 17 17 17 17 17 17 17 17 16 17 18 18 18 18 18 18 18 18 19 19 18 19 21 23 23 24 24 25 25 26
15 15 15 14 14 14 15 16 16 16 17 17 17 17 17 17 16 17 17 16 15 15 16 17 17 16 16 17 17 17 17 18 19 18 19 20 20 21 22 22 23 24 25
14 14 14 13 14 14 15 16 16 16 17 17 17 17 17 16 16 16 16 15 16 16 16 16 15 15 16 15 15 16 16 17 17 17 18 18 17 18 19 20 20 21 22
14 14 14 13 14 14 14 15 16 16 16 16 17 17 17 16 16 16 16 15 15 15 15 15 15 15 14 14 14 15 16 16 15 15 16 15 15 16 16 18 18 18 19
13 13 14 14 14 14 14 15 15 15 16 16 16 17 17 17 17 16 15 14 14 15 15 14 14 14 14 14 14 14 14 14 13 13 12 12 12 13 13 15 16 17 17
13 13 13 13 14 15 14 15 15 15 16 16 16 16 16 17 16 15 14 14 14 14 14 13 14 13 14 13 13 13 13 13 12 11 11 10 10 10 10 11 13 14 15
13 13 13 13 14 15 15 15 15 15 15 16 17 16 16 16 16 15 14 15 15 14 13 13 13 13 13 12 12 13 12 12 11 11 10 9 9 9 9 10 11 12 12
14 13 13 14 14 15 15 15 15 15 15 16 17 17 16 16 15 15 15 15 15 14 13 13 14 13 12 12 12 12 12 11 10 9 9 8 8 8 8 8 9 10 11
15 15 15 14 15 15 14 15 16 16 16 16 16 17 17 17 16 15 15 15 15 15 14 14 13 12 12 12 12 11 11 10 9 8 7 7 7 7 8 8 9 9 10
16 16 16 16 15 15 15 15 15 16 16 16 16 17 17 16 16 15 15 15 15 15 14 14 13 12 12 12 11 10 10 9 8 7 7 7 7 7 7 8 8 9 10
16 17 17 16 16 15 15 15 15 15 15 16 16 16 16 16 16 16 16 16 15 15 14 14 13 12 11 11 11 10 9 8 8 8 8 8 8 8 8 8 8 9 10
17 17 16 17 17 16 16 16 15 15 15 15 15 15 15 15 16 16 15 15 15 14 13 13 12 11 10 10 10 9 8 8 8 8 8 8 9 9 9 9 9 10 10
17 17 16 17 16 16 17 16 15 15 15 15 15 15 15 15 15 15 15 14 14 13 12 11 10 10 10 10 10 10 9 9 9 9 9 9 9 9 9 10 10 11 12
19 18 18 18 17 17 17 16 16 15 15 15 15 15 15 15 15 15 15 15 14 13 12 11 11 11 10 10 10 9 9 9 9 9 9 9 10 10 10 10 10 11 12
20 19 19 19 17 17 17 16 16 15 16 16 15 15 15 15 15 15 14 14 13 12 12 11 11 10 10 10 10 9 9 9 9 9 9 9 10 10 11 11 12 11 11
21 20 19 19 18 17 17 17 17 16 16 16 16 16 15 14 14 14 14 13 13 12 11 11 11 10 10 10 10 10 9 9 9 9 9 10 10 11 11 11 11 11 11
22 20 19 18 18 18 18 17 17 17 16 16 16 16 15 14 13 13 13 13 12 11 11 10 10 10 10 9 9 10 10 10 10 11 11 11 11 11 12 11 11 11 11
21 20 20 20 19 18 18 18 18 17 17 16 16 16 14 13 13 13 13 13 12 11 11 11 11 11 10 9 9 10 10 10 11 11 11 12 12 12 12 11 11 11 12
20 20 20 20 20 19 19 19 19 18 17 17 16 16 15 14 13 13 13 13 12 12 12 12 11 11 11 10 10 10 11 11 11 11 12 12 13 12 12 11 11 11 11
20 20 20 21 21 20 20 19 19 19 18 17 17 16 15 14 14 14 14 14 13 12 12 12 12 11 11 11 11 11 11 12 12 13 13 13 13 12 11 10 10 10 10
22 22 21 21 21 21 20 20 20 20 19 19 18 17 16 15 15 15 15 14 13 13 13 13 12 12 12 12 12 12 12 12 12 12 12 12 12 12 11 11 11 11 10
23 22 21 21 20 20 20 21 20 20 19 19 19 18 17 16 16 16 15 14 14 13 13 13 13 12 12 12 12 12 13 13 12 11 11 11 11 12 11 10 10 10 10
23 22 22 21 21 20 20 20 20 20 20 20 19 19 18 17 16 16 15 14 14 14 13 13 13 13 13 13 13 13 13 13 12 11 10 11 11 11 11 11 11 11 11
23 23 22 22 21 21 20 20 20 20 20 20 20 19 18 18 17 16 15 14 14 13 13 13 13 13 13 13 13 13 12 12 11 11 11 12 12 12 11 11 11 12 13
23 23 22 22 22 22 22 21 20 20 19 19 19 18 17 16 16 15 15 14 14 13 13 13 13 13 13 14 14 13 12 12 12 12 12 12 12 13 13 13 13 13 13
24 23 22 21 21 21 21 20 19 19 18 18 17 16 17 17 16 15 15 14 14 14 14 14 14 14 14 14 14 14 13 13 13 13 14 13 13 13 13 13 13 13 13
Wind_Direction
306 309 312 314 313 314 319 320 321 322 322 323 323 324 323 322 318 312 308 305 301 300 298 298 296 295 295 292 289 287 283 281 279 275 271 268 263 260 258 256 255 253 252
308 309 313 316 316 316 319 322 323 322 322 323 322 322 322 323 322 321 317 314 311 308 307 306 303 301 302 300 296 293 290 285 280 276 273 271 266 263 260 256 255 253 251
309 310 312 315 317 318 320 322 323 322 322 323 322 321 323 324 325 324 321 317 317 317 316 313 311 305 304 304 301 298 296 293 287 283 277 272 268 265 262 258 254 252 251
309 311 313 314 315 318 320 321 322 322 322 322 321 322 323 323 323 323 320 318 319 320 319 317 315 313 307 305 302 301 301 299 293 289 282 273 271 268 265 256 252 252 249
308 310 313 317 319 318 319 320 319 320 322 323 324 324 323 323 323 323 320 320 320 321 322 319 319 319 315 312 307 303 302 303 299 294 286 280 276 272 266 255 250 250 247
305 307 311 313 317 320 324 326 321 320 322 325 325 325 323 322 325 325 324 321 320 321 319 317 317 320 318 315 310 307 306 304 300 296 291 283 278 268 263 254 246 245 242
302 303 306 310 314 318 322 323 321 321 323 326 327 325 323 324 325 324 324 322 320 319 318 318 318 318 317 316 312 311 309 304 299 294 292 282 274 270 263 256 245 240 241
299 300 303 305 310 315 317 319 320 322 326 329 329 327 326 325 324 324 325 324 324 321 318 318 317 316 315 317 315 312 312 306 300 294 290 281 273 267 257 254 250 248 245
297 297 300 302 307 312 313 315 316 320 324 329 332 331 330 328 325 326 327 326 326 323 319 317 315 313 314 313 315 314 313 312 303 296 292 287 276 272 261 259 256 253 252
295 294 297 299 302 306 308 311 313 317 320 324 328 329 329 328 327 328 327 327 326 323 318 315 314 312 312 312 314 312 310 310 304 295 292 291 284 279 267 263 259 258 260
291 290 293 296 297 301 304 307 311 317 320 323 326 327 328 328 326 326 327 328 326 322 319 318 316 313 313 316 318 314 308 304 303 298 290 285 283 282 276 266 260 261 265
286 290 292 293 294 294 297 302 307 312 316 318 323 326 327 326 327 328 329 328 327 326 323 322 320 316 315 320 322 319 310 303 301 302 294 286 283 279 279 276 270 269 272
282 286 289 291 292 293 296 298 302 307 309 313 317 321 322 323 326 329 331 332 330 328 327 327 326 323 320 320 322 319 312 306 301 299 295 287 282 277 274 278 277 275 272
279 284 287 288 289 292 293 296 299 302 305 308 311 314 317 319 322 325 326 326 327 327 326 325 323 321 316 313 316 317 312 309 305 301 299 294 288 283 278 277 277 279 278
275 277 281 283 284 286 290 292 294 297 301 304 307 309 310 313 316 321 326 327 327 328 327 326 321 320 317 313 314 316 314 311 310 309 306 302 297 289 283 281 281 279 279
274 276 280 280 280 283 286 288 290 293 296 299 302 305 308 311 315 320 324 326 328 328 330 329 326 322 319 315 312 311 308 306 304 304 305 304 302 298 293 287 283 282 282
272 274 275 278 279 281 283 284 286 288 292 294 298 303 305 307 311 315 318 322 323 326 329 329 328 325 322 316 312 315 313 306 303 303 303 305 304 302 299 295 290 287 286
272 273 276 279 281 280 281 281 282 285 288 289 292 296 299 302 305 309 313 317 315 317 323 326 327 326 323 318 313 310 309 309 306 305 304 304 305 305 303 298 294 290 287
271 272 274 275 277 278 279 280 280 281 283 284 287 290 292 297 299 302 307 308 309 310 315 320 322 323 322 321 318 313 311 309 306 305 304 303 305 304 301 299 297 295 291
269 269 269 272 274 276 277 279 278 277 278 280 282 283 284 289 294 297 299 302 304 305 308 313 316 317 318 319 320 318 314 310 304 302 301 302 304 304 301 298 297 297 295
267 267 268 269 270 272 274 276 276 275 274 276 277 278 279 281 287 290 293 297 299 302 305 307 308 308 310 312 314 316 317 317 311 304 301 301 302 302 299 298 296 297 297
268 267 268 268 267 269 272 274 274 273 272 272 273 274 274 275 280 284 285 288 292 297 303 304 303 301 302 305 308 311 314 315 314 309 304 303 302 301 299 299 299 296 296
268 269 267 266 266 266 268 269 270 271 271 271 271 272 271 271 275 279 281 283 286 289 293 299 302 301 302 303 306 308 310 310 309 307 306 306 305 303 299 295 294 295 297
269 270 270 268 267 265 264 266 268 270 270 270 269 270 270 268 271 275 277 280 283 286 289 294 297 299 301 303 306 307 307 309 308 304 301 302 303 302 301 299 298 298 298
270 271 270 268 265 264 263 263 265 267 269 269 269 268 267 267 268 271 274 278 282 284 289 291 291 293 297 302 305 307 306 305 304 303 302 301 300 300 300 299 298 297 296
270 270 269 266 264 263 262 261 261 263 267 268 266 265 264 263 264 266 269 273 277 281 286 287 286 288 294 298 299 302 302 301 300 300 301 299 299 302 302 300 299 298 295
Height
5787 5785 5783 5780 5778 5776 5773 5771 5768 5765 5762 5759 5756 5754 5751 5748 5745 5743 5741 5738 5736 5735 5733 5732 5730 5728 5727 5725 5723 5722 5721 5720 5719 5718 5717 5716 5716 5717 5717 5719 5720 5722 5725
5783 5781 5779 5777 5775 5773 5770 5768 5765 5762 5759 5757 5754 5751 5748 5745 5742 5740 5737 5735 5733 5731 5729 5727 5725 5724 5722 5720 5719 5717 5716 5714 5713 5712 5711 5710 5710 5710 5711 5712 5713 5715 5718
5780 5778 5776 5774 5772 5770 5767 5765 5762 5759 5757 5754 5751 5748 5745 5742 5739 5737 5734 5732 5730 5727 5725 5723 5721 5719 5717 5716 5714 5713 5711 5709 5708 5706 5705 5704 5704 5704 5705 5706 5707 5709 5711
5777 5775 5773 5771 5769 5767 5764 5762 5759 5757 5754 5751 5748 5746 5742 5739 5737 5734 5731 5729 5726 5724 5722 5720 5717 5715 5714 5712 5710 5708 5706 5705 5703 5701 5700 5699 5699 5699 5700 5701 5702 5704 5706
5775 5773 5771 5769 5767 5764 5762 5759 5756 5754 5751 5748 5745 5742 5739 5736 5734 5731 5728 5726 5723 5721 5719 5716 5714 5712 5710 5708 5706 5704 5703 5701 5699 5697 5696 5696 5695 5695 5696 5697 5698 5700 5701
5772 5770 5769 5767 5764 5762 5759 5756 5754 5751 5748 5745 5742 5739 5736 5733 5730 5727 5725 5723 5720 5718 5715 5713 5711 5709 5707 5705 5703 5701 5699 5698 5696 5695 5694 5693 5693 5692 5693 5693 5695 5696 5698
5769 5767 5766 5764 5762 5759 5756 5754 5751 5748 5745 5742 5739 5736 5733 5730 5727 5724 5722 5719 5717 5715 5712 5710 5708 5706 5704 5702 5700 5698 5696 5694 5693 5692 5691 5691 5691 5691 5691 5691 5692 5693 5695
5766 5764 5763 5761 5758 5756 5754 5751 5748 5745 5743 5739 5736 5733 5730 5727 5724 5721 5719 5716 5714 5711 5709 5707 5705 5703 5701 5699 5697 5695 5694 5692 5691 5690 5690 5689 5689 5689 5689 5690 5691 5691 5693
5762 5761 5759 5757 5755 5753 5750 5748 5746 5743 5740 5737 5734 5731 5727 5724 5721 5719 5716 5713 5711 5708 5706 5704 5702 5700 5699 5697 5695 5693 5691 5690 5689 5688 5687 5687 5687 5687 5687 5688 5689 5690 5691
5758 5757 5755 5753 5751 5749 5747 5745 5742 5739 5737 5734 5731 5728 5725 5722 5719 5716 5713 5711 5708 5705 5703 5701 5699 5697 5695 5694 5692 5690 5689 5688 5687 5686 5686 5686 5686 5686 5686 5686 5687 5688 5688
5753 5752 5750 5749 5747 5745 5743 5741 5738 5736 5734 5731 5728 5725 5722 5719 5716 5713 5710 5708 5705 5702 5700 5698 5696 5694 5692 5691 5689 5688 5687 5686 5685 5685 5684 5684 5684 5684 5684 5684 5685 5685 5686
5748 5747 5745 5744 5742 5740 5739 5737 5735 5732 5730 5728 5726 5723 5720 5717 5714 5711 5708 5705 5702 5700 5697 5695 5693 5691 5690 5688 5687 5686 5685 5684 5684 5683 5683 5683 5682 5682 5682 5682 5682 5682 5683
5742 5741 5740 5739 5737 5736 5734 5733 5731 5729 5727 5725 5723 5720 5718 5715 5712 5709 5706 5703 5700 5697 5695 5693 5691 5689 5688 5687 5685 5684 5683 5682 5682 5681 5681 5680 5680 5680 5680 5680 5680 5679 5679
5736 5735 5734 5733 5732 5731 5730 5728 5727 5725 5723 5721 5719 5717 5714 5712 5709 5706 5703 5700 5697 5695 5693 5691 5689 5687 5686 5684 5683 5682 5681 5680 5680 5679 5678 5678 5677 5677 5677 5677 5677 5677 5677
5730 5728 5728 5727 5726 5726 5724 5723 5722 5721 5719 5717 5715 5713 5711 5709 5706 5703 5700 5697 5695 5692 5690 5688 5686 5685 5683 5682 5681 5680 5679 5679 5678 5677 5676 5675 5675 5674 5674 5674 5673 5673 5673
5723 5723 5722 5721 5720 5720 5719 5718 5717 5716 5715 5713 5711 5709 5707 5705 5703 5700 5698 5695 5693 5690 5688 5686 5684 5682 5681 5680 5678 5678 5677 5676 5676 5675 5674 5673 5672 5671 5671 5670 5670 5669 5669
5716 5716 5716 5715 5714 5714 5713 5713 5712 5711 5709 5708 5707 5705 5704 5702 5700 5698 5696 5693 5691 5689 5687 5684 5682 5680 5678 5677 5676 5675 5674 5673 5673 5672 5671 5670 5669 5668 5668 5667 5666 5666 5665
5709 5709 5709 5709 5709 5708 5708 5707 5706 5706 5705 5704 5702 5701 5699 5698 5696 5694 5692 5690 5689 5687 5685 5682 5680 5678 5676 5674 5673 5672 5671 5670 5670 5669 5668 5667 5666 5665 5664 5664 5663 5663 5662
5702 5702 5702 5702 5702 5702 5701 5701 5701 5700 5699 5699 5698 5696 5695 5693 5692 5691 5689 5687 5686 5684 5682 5680 5678 5676 5674 5672 5671 5670 5668 5667 5666 5666 5665 5664 5663 5662 5661 5660 5660 5659 5659
5695 5695 5695 5695 5695 5695 5695 5694 5694 5694 5693 5693 5692 5691 5690 5689 5688 5687 5685 5684 5682 5681 5679 5677 5675 5673 5672 5670 5669 5667 5666 5664 5663 5662 5662 5661 5660 5659 5658 5657 5657 5656 5655
5687 5688 5688 5688 5688 5688 5688 5687 5687 5687 5687 5687 5686 5686 5685 5685 5684 5683 5682 5680 5679 5678 5676 5674 5672 5671 5669 5668 5666 5665 5663 5662 5660 5659 5658 5657 5656 5656 5655 5654 5653 5653 5652
5679 5679 5680 5680 5680 5680 5680 5681 5681 5680 5680 5680 5680 5680 5680 5679 5679 5678 5677 5677 5675 5674 5672 5671 5669 5668 5667 5665 5664 5662 5661 5660 5658 5657 5655 5654 5653 5652 5652 5651 5650 5649 5649
5671 5671 5672 5672 5672 5673 5673 5673 5673 5673 5673 5673 5674 5674 5674 5674 5674 5673 5673 5672 5671 5670 5669 5667 5666 5665 5664 5662 5661 5659 5658 5657 5655 5654 5653 5652 5650 5649 5648 5647 5647 5646 5645
5663 5663 5663 5664 5665 5665 5666 5666 5666 5667 5667 5667 5667 5667 5668 5668 5668 5668 5668 5667 5667 5666 5665 5664 5663 5661 5660 5659 5657 5656 5655 5653 5652 5651 5649 5648 5647 5646 5645 5644 5643 5642 5641
5655 5655 5655 5656 5656 5657 5658 5659 5660 5660 5660 5660 5661 5661 5662 5662 5663 5663 5663 5663 5662 5661 5661 5659 5658 5658 5657 5655 5654 5653 5651 5650 5649 5647 5646 5645 5643 5642 5641 5640 5639 5638 5636
5647 5647 5647 5648 5649 5650 5651 5652 5653 5653 5654 5654 5654 5655 5656 5657 5657 5658 5658 5658 5657 5657 5656 5655 5654 5653 5653 5651 5650 5649 5648 5646 5645 5643 5642 5641 5639 5638 5637 5635 5634 5633 5632